KC4KQE Weather Reports


Display with metric or nautical units.
time (UTC)temp
F
wind
direction
speed
MPH
gust
MPH
rain 1hr
in
rain 24hr
in
rain mn
in
humidity
%
barometer
mb
20180923014928 93 159 4.0 8.0 0.00 0.00 0.00 18 1010.7
20180923014431 93 158 6.0 9.0 0.00 0.00 0.00 18 1010.7
20180923012428 95 174 6.0 14.0 0.00 0.00 0.00 17 1010.7
20180923011428 95 168 6.0 8.0 0.00 0.00 0.00 17 1010.6
20180923005928 96 0 3.0 8.0 0.00 0.00 0.00 18 1010.5
20180923003428 97 0 1.0 6.0 0.00 0.00 0.00 17 1010.5
20180923001928 97 200 3.0 5.0 0.00 0.00 0.00 17 1010.5
20180922225428 98 0 4.0 10.0 0.00 0.00 0.00 14 1010.8
20180922214928 99 5 6.0 7.0 0.00 0.00 0.00 19 1011.5
20180922212428 99 13 8.0 7.0 0.00 0.00 0.00 19 1011.8
20180922204428 96 33 6.0 9.0 0.00 0.00 0.00 21 1012.6
20180922193928 100 32 5.0 9.0 0.00 0.00 0.00 23 1013.5
20180922192928 100 0 5.0 11.0 0.00 0.00 0.00 24 1013.8
20180922184928 98 346 5.0 10.0 0.00 0.00 0.00 26 1014.2
20180922184428 98 5 6.0 12.0 0.00 0.00 0.00 26 1014.3
20180922183428 97 235 3.0 10.0 0.00 0.00 0.00 27 1014.5
20180922182928 97 350 5.0 9.0 0.00 0.00 0.00 27 1014.6
20180922174428 96 46 5.0 9.0 0.00 0.00 0.00 28 1015.1
20180922171928 95 303 4.0 8.0 0.00 0.00 0.00 29 1015.3
20180922153428 88 196 1.0 4.0 0.00 0.00 0.00 34 1015.6
20180922150928 87 155 1.0 7.0 0.00 0.00 0.00 37 1015.6
20180922141428 84 51 1.0 3.0 0.00 0.00 0.00 37 1015.3
20180922133928 81 29 2.0 4.0 0.00 0.00 0.00 37 1014.9
20180922132928 82 30 2.0 4.0 0.00 0.00 0.00 37 1014.8
20180922130928 80 100 1.0 3.0 0.00 0.00 0.00 38 1014.6
20180922125428 81 55 1.0 3.0 0.00 0.00 0.00 37 1014.5
20180922121928 82 123 4.0 5.0 0.00 0.00 0.00 35 1014.1
20180922115428 79 33 0.0 4.0 0.00 0.00 0.00 40 1013.8
20180922114928 79 34 1.0 3.0 0.00 0.00 0.00 40 1013.9
20180922095928 77 355 3.0 6.0 0.00 0.00 0.00 41 1013.8
20180922095428 77 5 5.0 5.0 0.00 0.00 0.00 42 1013.8
20180922091428 79 22 2.0 4.0 0.00 0.00 0.00 39 1014.0
20180922085928 79 355 5.0 6.0 0.00 0.00 0.00 39 1013.9
20180922084428 78 22 3.0 3.0 0.00 0.00 0.00 39 1014.0
20180922080431 76 355 2.0 3.0 0.00 0.00 0.00 44 1014.2
20180922073428 79 355 0.0 1.0 0.00 0.00 0.00 41 1014.3
20180922071428 79 355 0.0 3.0 0.00 0.00 0.00 41 1014.1
20180922054428 80 315 0.0 0.0 0.00 0.00 0.00 42 1014.0
20180922053928 80 315 0.0 0.0 0.00 0.00 0.00 40 1014.1
20180922043428 82 210 1.0 2.0 0.00 0.00 0.00 37 1013.9
20180922042928 83 210 1.0 2.0 0.00 0.00 0.00 37 1013.8